TimeCDT,TemperatureF,Dew PointF,Humidity,Sea Level PressureIn,VisibilityMPH,Wind Direction,Wind SpeedMPH,Gust SpeedMPH,PrecipitationIn,Events,Conditions,WindDirDegrees,DateUTC
12:15 AM,68.2,65.3,90,29.89,7.0,SSW,4.6,-,N/A,,Overcast,210,2013-07-27 05:15:00
12:35 AM,68.5,65.7,90,29.90,7.0,SSW,4.6,-,N/A,,Overcast,200,2013-07-27 05:35:00
12:55 AM,68.9,65.8,90,29.89,7.0,SSW,4.6,-,N/A,,Overcast,210,2013-07-27 05:55:00
1:15 AM,68.9,66.0,90,29.89,7.0,SW,5.8,-,N/A,,Overcast,230,2013-07-27 06:15:00
1:35 AM,69.1,66.2,91,29.89,7.0,WSW,4.6,-,N/A,,Overcast,240,2013-07-27 06:35:00
1:55 AM,69.3,66.4,91,29.89,10.0,West,4.6,-,N/A,,Overcast,270,2013-07-27 06:55:00
2:15 AM,68.9,66.2,91,29.89,10.0,WNW,6.9,-,N/A,,Mostly Cloudy,290,2013-07-27 07:15:00
2:35 AM,67.8,64.2,88,29.87,10.0,NW,6.9,-,N/A,,Scattered Clouds,310,2013-07-27 07:35:00
2:55 AM,66.2,62.1,86,29.87,10.0,WNW,5.8,-,N/A,,Unknown,300,2013-07-27 07:55:00
3:15 AM,64.4,60.4,87,29.88,10.0,West,4.6,-,N/A,,Unknown,280,2013-07-27 08:15:00
3:35 AM,63.7,60.3,89,29.88,10.0,West,5.8,-,N/A,,Unknown,280,2013-07-27 08:35:00
3:55 AM,63.1,59.9,89,29.88,7.0,WNW,4.6,-,N/A,,Unknown,290,2013-07-27 08:55:00
4:15 AM,61.9,58.8,90,29.87,10.0,West,4.6,-,N/A,,Unknown,280,2013-07-27 09:15:00
4:35 AM,61.2,58.3,90,29.88,7.0,WNW,5.8,-,N/A,,Unknown,290,2013-07-27 09:35:00
4:55 AM,61.0,58.1,90,29.88,7.0,WNW,5.8,-,N/A,,Unknown,290,2013-07-27 09:55:00
5:15 AM,60.8,57.7,90,29.89,10.0,WNW,5.8,-,N/A,,Unknown,290,2013-07-27 10:15:00
5:35 AM,59.7,56.8,90,29.89,7.0,WNW,6.9,-,N/A,,Unknown,290,2013-07-27 10:35:00
5:55 AM,59.0,56.3,91,29.90,7.0,West,4.6,-,N/A,,Unknown,280,2013-07-27 10:55:00
6:15 AM,58.5,56.1,92,29.90,10.0,West,4.6,-,N/A,,Unknown,280,2013-07-27 11:15:00
6:35 AM,60.6,58.1,91,29.90,10.0,WNW,4.6,-,N/A,,Unknown,290,2013-07-27 11:35:00
6:55 AM,62.1,58.1,87,29.90,10.0,WNW,5.8,-,N/A,,Unknown,290,2013-07-27 11:55:00
7:15 AM,63.5,58.5,84,29.91,10.0,West,6.9,-,N/A,,Unknown,280,2013-07-27 12:15:00
7:35 AM,64.4,59.0,83,29.91,10.0,West,6.9,-,N/A,,Clear,280,2013-07-27 12:35:00
7:55 AM,66.2,59.4,79,29.90,10.0,WNW,6.9,-,N/A,,Unknown,300,2013-07-27 12:55:00
8:15 AM,66.7,59.2,77,29.90,10.0,WNW,6.9,-,N/A,,Unknown,290,2013-07-27 13:15:00
8:55 AM,69.1,60.6,74,29.90,10.0,West,5.8,-,N/A,,Clear,270,2013-07-27 13:55:00
9:15 AM,70.0,60.4,72,29.90,7.0,WNW,6.9,-,N/A,,Clear,300,2013-07-27 14:15:00
9:35 AM,71.6,61.0,69,29.90,10.0,WNW,5.8,-,N/A,,Clear,290,2013-07-27 14:35:00
9:55 AM,73.2,61.5,67,29.89,10.0,West,8.1,-,N/A,,Clear,260,2013-07-27 14:55:00
10:15 AM,75.2,62.1,64,29.89,10.0,West,5.8,-,N/A,,Clear,270,2013-07-27 15:15:00
10:35 AM,75.4,61.7,62,29.89,10.0,West,5.8,-,N/A,,Scattered Clouds,280,2013-07-27 15:35:00
10:55 AM,75.7,59.7,57,29.89,7.0,West,11.5,16.1,N/A,,Scattered Clouds,280,2013-07-27 15:55:00
11:15 AM,75.0,59.9,59,29.89,5.0,NW,11.5,16.1,N/A,,Haze,310,2013-07-27 16:15:00
11:35 AM,75.7,59.5,57,29.90,7.0,WNW,10.4,-,N/A,,Mostly Cloudy,290,2013-07-27 16:35:00
11:55 AM,74.3,60.4,62,29.89,7.0,WNW,10.4,18.4,N/A,,Scattered Clouds,290,2013-07-27 16:55:00
12:15 PM,75.4,59.5,58,29.89,7.0,WNW,11.5,-,N/A,,Scattered Clouds,290,2013-07-27 17:15:00
12:35 PM,75.6,58.6,56,29.90,5.0,WNW,9.2,23.0,N/A,,Haze,290,2013-07-27 17:35:00
1:15 PM,74.1,57.2,55,29.89,7.0,West,12.7,18.4,N/A,,Scattered Clouds,270,2013-07-27 18:15:00
1:35 PM,76.5,55.0,47,29.89,7.0,WNW,12.7,18.4,N/A,,Scattered Clouds,290,2013-07-27 18:35:00
1:55 PM,77.7,55.8,47,29.88,5.0,WNW,12.7,20.7,N/A,,Haze,290,2013-07-27 18:55:00
2:15 PM,76.6,54.1,46,29.88,7.0,West,15.0,21.9,N/A,,Scattered Clouds,270,2013-07-27 19:15:00
2:35 PM,75.6,52.9,45,29.88,7.0,WNW,10.4,-,N/A,,Scattered Clouds,290,2013-07-27 19:35:00
2:55 PM,74.3,53.8,49,29.89,7.0,WNW,12.7,18.4,N/A,,Scattered Clouds,300,2013-07-27 19:55:00
3:15 PM,75.2,51.8,44,29.89,7.0,West,10.4,18.4,N/A,,Mostly Cloudy,280,2013-07-27 20:15:00
3:35 PM,73.2,50.7,45,29.89,7.0,WNW,10.4,17.3,N/A,,Scattered Clouds,290,2013-07-27 20:35:00
3:55 PM,74.3,52.2,46,29.89,7.0,West,11.5,20.7,N/A,,Scattered Clouds,280,2013-07-27 20:55:00
4:15 PM,74.7,53.8,48,29.89,7.0,WNW,8.1,18.4,N/A,,Scattered Clouds,300,2013-07-27 21:15:00
4:35 PM,73.8,52.2,47,29.89,7.0,West,11.5,21.9,N/A,,Scattered Clouds,280,2013-07-27 21:35:00
4:55 PM,74.3,52.0,46,29.89,7.0,WNW,12.7,19.6,N/A,,Scattered Clouds,300,2013-07-27 21:55:00
5:15 PM,73.4,51.4,46,29.89,7.0,WNW,9.2,-,N/A,,Scattered Clouds,290,2013-07-27 22:15:00
5:35 PM,73.9,48.7,41,29.89,7.0,West,12.7,21.9,N/A,,Clear,280,2013-07-27 22:35:00
5:55 PM,73.4,48.7,42,29.89,7.0,WNW,11.5,-,N/A,,Clear,290,2013-07-27 22:55:00
6:15 PM,73.4,48.4,41,29.90,7.0,WNW,11.5,-,N/A,,Clear,300,2013-07-27 23:15:00
6:35 PM,70.0,50.5,50,29.90,7.0,WNW,6.9,17.3,N/A,,Scattered Clouds,300,2013-07-27 23:35:00
6:55 PM,69.4,51.4,53,29.91,7.0,NW,12.7,18.4,N/A,,Scattered Clouds,310,2013-07-27 23:55:00
7:15 PM,67.1,51.8,58,29.92,7.0,NW,11.5,18.4,N/A,,Scattered Clouds,320,2013-07-28 00:15:00
7:35 PM,66.7,51.1,57,29.92,7.0,NW,11.5,19.6,N/A,,Unknown,310,2013-07-28 00:35:00
7:55 PM,64.2,50.0,60,29.93,10.0,WNW,8.1,-,N/A,,Unknown,300,2013-07-28 00:55:00
8:15 PM,63.1,48.7,59,29.93,10.0,WNW,6.9,-,N/A,,Unknown,300,2013-07-28 01:15:00
8:35 PM,61.7,49.3,64,29.94,10.0,NW,4.6,-,N/A,,Unknown,310,2013-07-28 01:35:00
8:55 PM,61.0,49.8,67,29.94,10.0,WNW,5.8,-,N/A,,Unknown,300,2013-07-28 01:55:00
9:15 PM,59.2,48.7,68,29.95,10.0,WNW,4.6,-,N/A,,Unknown,290,2013-07-28 02:15:00
9:35 PM,56.8,48.2,73,29.95,10.0,WNW,4.6,-,N/A,,Unknown,290,2013-07-28 02:35:00
9:55 PM,55.2,47.5,75,29.95,10.0,West,4.6,-,N/A,,Unknown,280,2013-07-28 02:55:00
10:15 PM,54.0,47.3,78,29.95,10.0,West,4.6,-,N/A,,Unknown,280,2013-07-28 03:15:00
10:35 PM,53.8,47.8,80,29.95,10.0,West,4.6,-,N/A,,Clear,280,2013-07-28 03:35:00
10:55 PM,53.2,47.8,82,29.95,10.0,West,4.6,-,N/A,,Clear,280,2013-07-28 03:55:00
11:15 PM,52.5,46.8,81,29.95,10.0,West,4.6,-,N/A,,Clear,270,2013-07-28 04:15:00
11:35 PM,52.5,47.3,82,29.95,10.0,West,4.6,-,N/A,,Unknown,270,2013-07-28 04:35:00
11:55 PM,51.3,46.4,83,29.95,10.0,West,4.6,-,N/A,,Unknown,270,2013-07-28 04:55:00